User: anonymous
Location: Unspecified
(0.0000°N, 0.0000°E)
Time: 17:20:45
(UTC+00:00)
Language:

N. Korean satellite - Orbit

View from above orbital plane
View from above orbital plane
View from above satellite
View from above satellite

Ground track
Ground track

The orbit data is extracted from the following two-line orbital elements,

1 39026U 12072A   14235.10918259  .00003284  00000-0  17465-3 0  1290
2 39026 097.3228 272.2732 0052067 193.9802 165.9992 15.14781567 93503
Epoch (UTC): 23 August 2014 02:37:13
Eccentricity: 0.0052067
inclination: 97.3228°
perigee height: 486 km
apogee height: 557 km
right ascension of ascending node: 272.2732°
argument of perigee: 193.9802°
revolutions per day: 15.14781567
mean anomaly at epoch: 165.9992°
orbit number at epoch: 9350

The dashed part of the orbit path shows where the satellite is in the earth's shadow,  

DLR